This is the latest recevied weather packets stored in our database for station/object KC1HBM. If no packets are shown the sender has not sent any weather packets the latest 10 day(s).
| Time | Temp. | Humidity | Pressure | Rain* | Wind** | Luminosity | Snow |
|---|---|---|---|---|---|---|---|
| 1777932598 | 20.56° C | 39% | 1002.6 hPa | 0 mm | - | 16 W/m² | - |
| 1777932294 | 21.11° C | 39% | 1002.5 hPa | 0 mm | - | 16 W/m² | - |
| 1777931991 | 20.56° C | 38% | 1002.7 hPa | 0 mm | - | 18 W/m² | - |
| 1777931688 | 21.11° C | 38% | 1002.6 hPa | 0 mm | - | 17 W/m² | - |
| 1777931385 | 21.67° C | 38% | 1002.5 hPa | 0 mm | - | 19 W/m² | - |
| 1777931081 | 21.67° C | 37% | 1002.6 hPa | 0 mm | - | 25 W/m² | - |
| 1777930778 | 21.67° C | 37% | 1002.5 hPa | 0 mm | - | 34 W/m² | - |
| 1777930474 | 21.67° C | 37% | 1002.5 hPa | 0 mm | - | 29 W/m² | - |
| 1777930172 | 21.67° C | 37% | 1002.6 hPa | 0 mm | - | 35 W/m² | - |
| 1777929867 | 21.67° C | 37% | 1002.6 hPa | 0 mm | - | 33 W/m² | - |
| 1777929565 | 21.67° C | 37% | 1002.5 hPa | 0 mm | - | 35 W/m² | - |
| 1777929261 | 21.67° C | 38% | 1002.5 hPa | 0 mm | - | 42 W/m² | - |
| 1777928959 | 21.67° C | 37% | 1002.3 hPa | 0 mm | - | 33 W/m² | - |
| 1777928655 | 21.67° C | 37% | 1002.4 hPa | 0 mm | - | 39 W/m² | - |
| 1777928353 | 21.67° C | 38% | 1002.6 hPa | 0 mm | - | 60 W/m² | - |
| 1777928050 | 21.67° C | 38% | 1002.6 hPa | 0 mm | - | 44 W/m² | - |
| 1777927748 | 22.22° C | 36% | 1002.5 hPa | 0 mm | - | 38 W/m² | - |
| 1777927446 | 22.22° C | 37% | 1002.5 hPa | 0 mm | - | 39 W/m² | - |
| 1777927146 | 21.67° C | 37% | 1002.4 hPa | 0 mm | - | 41 W/m² | - |
| 1777926842 | 22.22° C | 37% | 1002.4 hPa | 0 mm | - | 54 W/m² | - |
| 1777926538 | 21.67° C | 37% | 1002.6 hPa | 0 mm | - | 63 W/m² | - |
| 1777926235 | 21.67° C | 38% | 1002.5 hPa | 0 mm | - | 65 W/m² | - |
| 1777925931 | 21.67° C | 38% | 1002.6 hPa | 0 mm | - | 68 W/m² | - |
| 1777925629 | 21.67° C | 39% | 1002.5 hPa | 0 mm | - | 75 W/m² | - |
| 1777925326 | 21.11° C | 39% | 1002.5 hPa | 0 mm | - | 88 W/m² | - |
* Rain latest hour (hover to see other rain measurements)
** Current wind speed in m/s (hover to see current wind gust speed)